Location: Ravencliff
(37.6982°N, 81.4812°W)
Time: 19:16:39
(UTC+00:00)

ACS3 Solar Sail - Pass Details

Date: 26 April 2026
Orbit: 894 x 947 km, 97.2° (Epoch: 12 May)

Event Time Altitude Azimuth Distance (km) Brightness Sun altitude
Rises 05:20:56 0° 26° (NNE) 3,566 5.5 -38.8°
Reaches altitude 10° 05:23:55 10° 41° (NE) 2,628 4.5 -38.8°
Enters shadow 05:25:54 17° 58° (ENE) 2,145 3.8 -38.8°
